Simultaneous Nadir Overpasses (SNOs) Predictions

Prediction of SNOs between METOP-B and NOAA-19 Satellite Orbit:

Table of predicted SNOs for the next 14.0 days since TLE Epoch: 7/10/2016
Index Date (METOP-B) Time (METOP-B) Lat,Lon (METOP-B) SZA (METOP-B ) Date (NOAA-19) Time (NOAA-19) Lat,Lon (NOAA-19) SZA (NOAA-19 ) Distance(km) Time Diff (sec)
1 07/17/2016 10:20:11 76.18, 25.97 55.03 07/17/2016 10:18:56 76.22, 25.85 55.06 4.80 75
2 07/17/2016 11:10:53 -76.17,-166.77 124.99 07/17/2016 11:09:51 -76.17,-166.72 124.98 1.56 62
3 07/17/2016 12:01:33 76.17, 0.57 55.03 07/17/2016 12:00:57 76.17, 0.52 55.03 1.65 36
4 07/17/2016 12:52:15 -76.15, 167.84 124.99 07/17/2016 12:51:53 -76.17, 167.78 124.97 3.09 22
5 07/17/2016 13:42:55 76.15, -24.82 55.02 07/17/2016 13:42:58 76.13, -24.83 55.00 2.74 3
6
